| time (UTC) | temp F | wind direction | speed MPH | gust MPH | rain 1hr in | rain 24hr in | rain mn in | humidity % | barometer mb |
| 20260906083059 | 70 | 270 | 0.0 | 0.0 | 0.00 | 0.02 | 0.00 | 1 | 1009.2 |
| 20260906081559 | 69 | 273 | 0.0 | 0.0 | 0.00 | 0.02 | 0.00 | 1 | 1008.9 |
| 20260906080050 | 69 | 273 | 0.0 | 0.0 | 0.00 | 0.02 | 0.00 | 1 | 1009.0 |
| 20260906074546 | 69 | 273 | 0.0 | 0.0 | 0.00 | 0.02 | 0.00 | 1 | 1009.0 |
| 20260906073045 | 69 | 273 | 0.0 | 0.0 | 0.00 | 0.02 | 0.00 | 1 | 1009.0 |
| 20260906071536 | 69 | 273 | 0.0 | 0.0 | 0.00 | 0.02 | 0.00 | 1 | 1009.2 |
| 20260906070032 | 70 | 273 | 0.0 | 0.0 | 0.00 | 0.02 | 0.00 | 1 | 1009.2 |
| 20260906064529 | 70 | 273 | 0.0 | 0.0 | 0.00 | 0.02 | 0.00 | 1 | 1009.2 |
| 20260906063023 | 70 | 273 | 0.0 | 0.0 | 0.00 | 0.02 | 0.00 | 1 | 1009.3 |
| 20260906061520 | 70 | 273 | 0.0 | 0.0 | 0.00 | 0.02 | 0.00 | 1 | 1009.2 |
| 20260906060014 | 70 | 273 | 0.0 | 0.0 | 0.00 | 0.02 | 0.00 | 1 | 1009.2 |
| 20260906054510 | 70 | 273 | 0.0 | 0.0 | 0.00 | 0.02 | 0.00 | 1 | 1009.4 |
| 20260906053005 | 71 | 273 | 0.0 | 0.0 | 0.00 | 0.02 | 0.00 | 1 | 1009.3 |
| 20260906051502 | 71 | 273 | 0.0 | 0.0 | 0.00 | 0.02 | 0.00 | 1 | 1009.3 |
| 20260906050112 | 71 | 273 | 0.0 | 0.0 | 0.00 | 0.02 | 0.00 | 1 | 1009.5 |
| 20260906044554 | 72 | 273 | 0.0 | 0.0 | 0.00 | 0.02 | 0.00 | 1 | 1009.6 |
| 20260906043050 | 72 | 273 | 0.0 | 0.0 | 0.00 | 0.02 | 0.00 | 1 | 1009.7 |
| 20260906041547 | 72 | 273 | 0.0 | 0.0 | 0.00 | 0.02 | 0.00 | 1 | 1009.6 |
| 20260906040043 | 72 | 273 | 0.0 | 0.0 | 0.00 | 0.02 | 0.00 | 1 | 1009.6 |
| 20260906034540 | 73 | 273 | 0.0 | 0.0 | 0.00 | 0.03 | 0.02 | 1 | 1009.7 |
| 20260906033034 | 73 | 273 | 0.0 | 0.0 | 0.00 | 0.03 | 0.02 | 1 | 1009.7 |
| 20260906031551 | 73 | 273 | 0.0 | 0.0 | 0.00 | 0.03 | 0.02 | 3 | 1009.6 |
| 20260906030023 | 73 | 273 | 0.0 | 0.0 | 0.00 | 0.03 | 0.02 | 13 | 1009.7 |
| 20260906024520 | 73 | 304 | 0.0 | 0.0 | 0.00 | 0.03 | 0.02 | 27 | 1009.3 |
| 20260906023015 | 74 | 304 | 0.0 | 0.0 | 0.00 | 0.03 | 0.02 | 38 | 1009.1 |
| 20260906021511 | 74 | 304 | 0.0 | 0.0 | 0.00 | 0.03 | 0.02 | 44 | 1009.0 |
| 20260906020006 | 74 | 304 | 0.0 | 0.0 | 0.00 | 0.03 | 0.02 | 49 | 1008.9 |
| 20260906014507 | 75 | 304 | 0.0 | 0.0 | 0.00 | 0.03 | 0.02 | 55 | 1009.0 |
| 20260906013058 | 75 | 304 | 0.0 | 0.0 | 0.00 | 0.03 | 0.02 | 60 | 1008.8 |
| 20260906011601 | 76 | 304 | 0.0 | 0.0 | 0.00 | 0.03 | 0.02 | 63 | 1008.6 |
| 20260906010049 | 76 | 304 | 0.0 | 0.0 | 0.00 | 0.03 | 0.02 | 65 | 1008.5 |
| 20260906004551 | 77 | 304 | 0.0 | 0.0 | 0.00 | 0.03 | 0.02 | 68 | 1008.3 |
| 20260906003049 | 78 | 304 | 0.0 | 0.0 | 0.00 | 0.03 | 0.02 | 69 | 1008.1 |
| 20260906001544 | 79 | 304 | 0.0 | 0.0 | 0.00 | 0.03 | 0.02 | 69 | 1008.1 |
| 20260906000035 | 80 | 304 | 0.0 | 0.0 | 0.00 | 0.03 | 0.02 | 69 | 1008.0 |
| 20260905234533 | 81 | 304 | 0.0 | 0.0 | 0.00 | 0.03 | 0.02 | 68 | 1007.9 |
| 20260905233025 | 82 | 304 | 0.0 | 0.0 | 0.00 | 0.03 | 0.02 | 67 | 1007.8 |
| 20260905231532 | 83 | 304 | 0.0 | 0.0 | 0.00 | 0.03 | 0.02 | 65 | 1007.5 |
| 20260905230017 | 83 | 303 | 0.0 | 0.0 | 0.00 | 0.03 | 0.02 | 64 | 1007.5 |
| 20260905224513 | 83 | 296 | 0.0 | 0.0 | 0.00 | 0.03 | 0.02 | 65 | 1007.7 |
| 20260905223008 | 83 | 309 | 0.0 | 0.0 | 0.00 | 0.03 | 0.02 | 60 | 1007.6 |
| 20260905221506 | 83 | 326 | 0.0 | 0.0 | 0.00 | 0.03 | 0.02 | 61 | 1007.8 |
| 20260905220001 | 83 | 306 | 0.0 | 0.0 | 0.00 | 0.04 | 0.02 | 60 | 1008.0 |
| 20260905214604 | 83 | 305 | 0.0 | 0.0 | 0.00 | 0.04 | 0.02 | 65 | 1007.9 |
| 20260905213055 | 81 | 325 | 0.0 | 0.0 | 0.00 | 0.04 | 0.02 | 67 | 1008.2 |
| 20260905211551 | 82 | 325 | 0.0 | 0.0 | 0.00 | 0.04 | 0.02 | 68 | 1008.2 |
| 20260905210103 | 84 | 302 | 0.0 | 1.0 | 0.00 | 0.04 | 0.02 | 66 | 1007.9 |
| 20260905204547 | 83 | 331 | 0.0 | 0.0 | 0.00 | 0.04 | 0.02 | 66 | 1007.5 |
| 20260905203044 | 82 | 331 | 0.0 | 0.0 | 0.00 | 0.04 | 0.02 | 65 | 1007.9 |
| 20260905201539 | 81 | 305 | 0.0 | 0.0 | 0.00 | 0.04 | 0.02 | 23 | 1008.3 |
| 20260905200038 | 80 | 317 | 0.0 | 0.0 | 0.00 | 0.04 | 0.02 | 1 | 1008.1 |
| 20260905183022 | 76 | 269 | 0.0 | 0.0 | 0.02 | 0.04 | 0.02 | 37 | 1008.7 |
| 20260905181519 | 79 | 269 | 0.0 | 1.0 | 0.01 | 0.03 | 0.01 | 71 | 1008.9 |
| 20260905180014 | 88 | 355 | 1.0 | 10.0 | 0.00 | 0.02 | 0.00 | 55 | 1009.0 |
| 20260905174512 | 95 | 298 | 0.0 | 0.0 | 0.00 | 0.02 | 0.00 | 49 | 1008.0 |
| 20260905173006 | 96 | 275 | 0.0 | 0.0 | 0.00 | 0.02 | 0.00 | 50 | 1008.1 |
| 20260905171501 | 96 | 329 | 0.0 | 0.0 | 0.00 | 0.02 | 0.00 | 49 | 1008.6 |
| 20260905170058 | 95 | 293 | 0.0 | 0.0 | 0.00 | 0.02 | 0.00 | 51 | 1009.1 |
| 20260905164557 | 95 | 313 | 0.0 | 0.0 | 0.00 | 0.02 | 0.00 | 54 | 1009.3 |
| 20260905163047 | 95 | 323 | 0.0 | 0.0 | 0.00 | 0.02 | 0.00 | 52 | 1009.4 |
| 20260905161544 | 93 | 321 | 0.0 | 0.0 | 0.00 | 0.02 | 0.00 | 55 | 1009.6 |
| 20260905160052 | 92 | 306 | 0.0 | 0.0 | 0.00 | 0.02 | 0.00 | 56 | 1009.7 |
| 20260905154540 | 92 | 15 | 0.0 | 0.0 | 0.00 | 0.02 | 0.00 | 55 | 1009.9 |
| 20260905153034 | 93 | 340 | 0.0 | 0.0 | 0.00 | 0.02 | 0.00 | 56 | 1009.9 |
| 20260905151526 | 92 | 309 | 0.0 | 0.0 | 0.00 | 0.02 | 0.00 | 57 | 1009.9 |
| 20260905150021 | 92 | 323 | 0.0 | 0.0 | 0.00 | 0.02 | 0.00 | 60 | 1010.1 |
| 20260905144527 | 90 | 300 | 0.0 | 0.0 | 0.00 | 0.02 | 0.00 | 60 | 1010.2 |
| 20260905143012 | 88 | 281 | 0.0 | 0.0 | 0.00 | 0.02 | 0.00 | 63 | 1010.2 |
| 20260905141512 | 87 | 329 | 0.0 | 0.0 | 0.00 | 0.02 | 0.00 | 63 | 1010.1 |
| 20260905140002 | 86 | 293 | 0.0 | 1.0 | 0.00 | 0.02 | 0.00 | 65 | 1010.2 |
| 20260905134604 | 85 | 302 | 0.0 | 0.0 | 0.00 | 0.02 | 0.00 | 67 | 1010.3 |
| 20260905133053 | 84 | 329 | 0.0 | 0.0 | 0.00 | 0.02 | 0.00 | 67 | 1010.2 |
| 20260905131549 | 82 | 5 | 0.0 | 0.0 | 0.00 | 0.02 | 0.00 | 61 | 1010.3 |
| 20260905130045 | 79 | 117 | 0.0 | 0.0 | 0.00 | 0.02 | 0.00 | 30 | 1010.4 |
| 20260905124544 | 76 | 117 | 0.0 | 0.0 | 0.00 | 0.02 | 0.00 | 1 | 1010.5 |
| 20260905123036 | 74 | 117 | 0.0 | 0.0 | 0.00 | 0.02 | 0.00 | 1 | 1010.3 |
| 20260905121531 | 72 | 117 | 0.0 | 0.0 | 0.00 | 0.02 | 0.00 | 1 | 1010.5 |
| 20260905120038 | 71 | 117 | 0.0 | 0.0 | 0.00 | 0.02 | 0.00 | 1 | 1010.4 |
| 20260905114523 | 70 | 117 | 0.0 | 0.0 | 0.00 | 0.02 | 0.00 | 1 | 1010.4 |
| 20260905113018 | 70 | 117 | 0.0 | 0.0 | 0.00 | 0.02 | 0.00 | 1 | 1010.1 |
| 20260905111516 | 70 | 117 | 0.0 | 0.0 | 0.00 | 0.02 | 0.00 | 1 | 1010.0 |
| 20260905110017 | 70 | 117 | 0.0 | 0.0 | 0.00 | 0.02 | 0.00 | 1 | 1010.0 |
| 20260905104509 | 70 | 117 | 0.0 | 0.0 | 0.00 | 0.02 | 0.00 | 1 | 1009.8 |
| 20260905103002 | 70 | 117 | 0.0 | 0.0 | 0.00 | 0.02 | 0.00 | 1 | 1009.7 |
| 20260905101557 | 70 | 117 | 0.0 | 0.0 | 0.00 | 0.02 | 0.00 | 1 | 1009.7 |
| 20260905100058 | 70 | 117 | 0.0 | 0.0 | 0.00 | 0.02 | 0.00 | 1 | 1009.7 |
| 20260905094549 | 70 | 117 | 0.0 | 0.0 | 0.00 | 0.02 | 0.00 | 1 | 1009.6 |
| 20260905093053 | 71 | 117 | 0.0 | 0.0 | 0.00 | 0.02 | 0.00 | 1 | 1009.7 |
| 20260905091539 | 71 | 117 | 0.0 | 0.0 | 0.00 | 0.02 | 0.00 | 1 | 1009.8 |
| 20260905090036 | 71 | 117 | 0.0 | 0.0 | 0.00 | 0.02 | 0.00 | 1 | 1009.8 |
| 20260905084533 | 71 | 117 | 0.0 | 0.0 | 0.00 | 0.02 | 0.00 | 1 | 1009.9 |